Destin, Florida, United States (32540)
Lat: 30.39N, Lon: 86.5W
Wx Zone: FLZ006
Local Info
Past Weather Observations for Sunday, September 28, 2014

NOTE: This archive is for the closest National Weather Service station to Destin. Information may differ from the station used for current weather conditions.

Click here for Long-term Archive

Time Weather Temperature Dewpoint Humidity Pressure Winds Precip Visibility
23:53
Overcast
Rain
75°F / 24°C 73°F / 23°C 94% 29.92 in
(1013 mb)
ENE 9.2 mph
(ENE 15 kph)
0.11 in
(2.79 mm)
6SM
23:14
Overcast
Rain
75°F / 24°C 73°F / 23°C 94% 29.95 in
(1014 mb)
ENE 6.9 mph
(ENE 11 kph)
0.01 in
(0.25 mm)
9SM
22:53
Overcast
Light Rain
75°F / 24°C 73°F / 23°C 94% 29.95 in
(1014 mb)
ENE 8.1 mph
(ENE 13 kph)
0.01 in
(0.25 mm)
10SM
22:07
Overcast
Light Rain
75°F / 24°C 73°F / 23°C 94% 29.95 in
(1014 mb)
E 6.9 mph
(E 11 kph)
0.01 in
(0.25 mm)
10SM
21:53
Mostly Cloudy
Light Rain
75°F / 24°C 73°F / 23°C 94% 29.95 in
(1014 mb)
ENE 8.1 mph
(ENE 13 kph)
0.02 in
(0.51 mm)
10SM
21:38
Mostly Cloudy
Light Rain
75°F / 24°C 73°F / 23°C 94% 29.98 in
(1015 mb)
ENE 8.1 mph
(ENE 13 kph)
0.02 in
(0.51 mm)
10SM
20:53
Overcast
Light Rain
75°F / 24°C 73°F / 23°C 94% 29.98 in
(1015 mb)
ENE 8.1 mph
(ENE 13 kph)
0.00 in
(0.00 mm)
7SM
20:46
Overcast
Light Rain
75°F / 24°C 73°F / 23°C 94% 29.98 in
(1015 mb)
ENE 8.1 mph
(ENE 13 kph)
0.00 in
(0.00 mm)
10SM
20:32
Overcast
75°F / 24°C 73°F / 23°C 94% 29.98 in
(1015 mb)
ENE 8.1 mph
(ENE 13 kph)
- 10SM
19:53
Overcast
75°F / 24°C 73°F / 23°C 94% 29.98 in
(1015 mb)
ENE 10.4 mph
(ENE 17 kph)
- 10SM
19:14
Mostly Cloudy
75°F / 24°C 73°F / 23°C 94% 29.98 in
(1015 mb)
NE 8.1 mph
(NE 13 kph)
- 10SM
18:53
Mostly Cloudy
77°F / 25°C 73°F / 23°C 89% 29.98 in
(1015 mb)
ENE 9.2 mph
(ENE 15 kph)
- 10SM
18:49
Mostly Cloudy
75°F / 24°C 73°F / 23°C 94% 29.98 in
(1015 mb)
ENE 10.4 mph
(ENE 17 kph)
- 10SM
18:03
Mostly Cloudy
77°F / 25°C 73°F / 23°C 89% 29.98 in
(1015 mb)
ENE 8.1 mph
(ENE 13 kph)
- 10SM
17:53
Mostly Cloudy
77°F / 25°C 73°F / 23°C 89% 29.98 in
(1015 mb)
ENE 9.2 mph
(ENE 15 kph)
- 10SM
17:31
Overcast
77°F / 25°C 73°F / 23°C 89% 29.98 in
(1015 mb)
ENE 6.9 mph
(ENE 11 kph)
- 10SM
16:53
Mostly Cloudy
77°F / 25°C 73°F / 23°C 89% 29.98 in
(1015 mb)
ENE 9.2 mph
(ENE 15 kph)
- 10SM
16:50
Mostly Cloudy
79°F / 26°C 73°F / 23°C 84% 29.98 in
(1015 mb)
ENE 9.2 mph
(ENE 15 kph)
- 10SM
15:53
Clear
79°F / 26°C 73°F / 23°C 84% 29.95 in
(1014 mb)
ENE 8.1 mph
(ENE 13 kph)
- 10SM
14:53
Partly Cloudy
79°F / 26°C 73°F / 23°C 84% 29.98 in
(1015 mb)
ENE 6.9 mph
(ENE 11 kph)
0.00 in
(0.00 mm)
10SM
13:53
Partly Cloudy
79°F / 26°C 73°F / 23°C 84% 29.98 in
(1015 mb)
E 5.8 mph
(E 9 kph)
- 10SM
13:51
Mostly Cloudy
79°F / 26°C 73°F / 23°C 84% 29.98 in
(1015 mb)
E 6.9 mph
(E 11 kph)
- 10SM
12:53
Overcast
79°F / 26°C 73°F / 23°C 84% 30.01 in
(1016 mb)
E 6.9 mph
(E 11 kph)
- 10SM
12:27
Overcast
79°F / 26°C 73°F / 23°C 84% 30.01 in
(1016 mb)
ENE 5.8 mph
(ENE 9 kph)
- 10SM
11:53
Overcast
79°F / 26°C 73°F / 23°C 84% 30.01 in
(1016 mb)
ENE 10.4 mph
(ENE 17 kph)
0.00 in
(0.00 mm)
10SM
10:53
Overcast
Light Rain
75°F / 24°C 73°F / 23°C 94% 30.04 in
(1017 mb)
E 5.8 mph
(E 9 kph)
0.01 in
(0.25 mm)
10SM
10:01
Overcast
Light Rain
75°F / 24°C 73°F / 23°C 94% 30.04 in
(1017 mb)
E 8.1 mph
(E 13 kph)
0.00 in
(0.00 mm)
10SM
09:53
Overcast
Light Rain
75°F / 24°C 73°F / 23°C 94% 30.04 in
(1017 mb)
ENE 9.2 mph
(ENE 15 kph)
0.03 in
(0.76 mm)
10SM
09:41
Overcast
Light Rain
75°F / 24°C 73°F / 23°C 94% 30.04 in
(1017 mb)
ENE 9.2 mph
(ENE 15 kph)
0.03 in
(0.76 mm)
9SM
08:53
Overcast
Light Rain
75°F / 24°C 72°F / 22°C 89% 30.04 in
(1017 mb)
E 6.9 mph
(E 11 kph)
0.02 in
(0.51 mm)
8SM
07:53
Mostly Cloudy
Light Rain
73°F / 23°C 72°F / 22°C 94% 30.04 in
(1017 mb)
E 8.1 mph
(E 13 kph)
0.01 in
(0.25 mm)
10SM
07:28
Partly Cloudy
Light Rain
73°F / 23°C 72°F / 22°C 94% 30.01 in
(1016 mb)
E 6.9 mph
(E 11 kph)
0.01 in
(0.25 mm)
10SM
06:53
Overcast
Light Rain
73°F / 23°C 72°F / 22°C 94% 30.01 in
(1016 mb)
E 8.1 mph
(E 13 kph)
0.00 in
(0.00 mm)
9SM
05:53
Overcast
75°F / 24°C 72°F / 22°C 89% 30.01 in
(1016 mb)
E 6.9 mph
(E 11 kph)
- 10SM
05:27
Overcast
75°F / 24°C 72°F / 22°C 89% 30.01 in
(1016 mb)
E 9.2 mph
(E 15 kph)
- 10SM
04:53
Mostly Cloudy
75°F / 24°C 72°F / 22°C 89% 30.01 in
(1016 mb)
E 9.2 mph
(E 15 kph)
0.00 in
(0.00 mm)
10SM
03:53
Partly Cloudy
Light Rain
75°F / 24°C 72°F / 22°C 89% 30.01 in
(1016 mb)
E 10.4 mph
(E 17 kph)
0.00 in
(0.00 mm)
10SM
02:53
Mostly Cloudy
75°F / 24°C 70°F / 21°C 83% 29.98 in
(1015 mb)
E 8.1 mph
(E 13 kph)
- 10SM
01:53
Overcast
75°F / 24°C 70°F / 21°C 83% 30.01 in
(1016 mb)
E 8.1 mph
(E 13 kph)
- 10SM
00:53
Mostly Cloudy
75°F / 24°C 70°F / 21°C 83% 30.01 in
(1016 mb)
ENE 6.9 mph
(ENE 11 kph)
- 10SM
Time Weather Temperature Dewpoint Humidity Pressure Winds Precip Visibility


Weather for websites

WeatherForYou.com, LLC is not responsible for any damages or problems caused by this service. Current weather conditions are obtained from the closest station including government and personal stations which may have varying degrees of accuracy. Weather forecasts are derived from the NOAA NDFD. Like all things, this site belongs to Jesus Christ... He just trusts me to maintain it. If you have any questions or comments email webmaster@weatherforyou.com

Copyright © 2014, WeatherForYou.com LLC. All rights reserved.